This is the latest recevied weather packets stored in our database for station/object K6POO-1. If no packets are shown the sender has not sent any weather packets the latest 10 day(s).
| Time | Temp. | Humidity | Pressure | Rain* | Wind** | Luminosity | Snow |
|---|---|---|---|---|---|---|---|
| 1777655399 | 12.22° C | 91% | 1016.3 hPa | 0 mm | - | 152 W/m² | - |
| 1777655095 | 12.22° C | 91% | 1016.3 hPa | 0 mm | - | 143 W/m² | - |
| 1777654793 | 12.22° C | 91% | 1016.2 hPa | 0 mm | - | 136 W/m² | - |
| 1777654491 | 12.22° C | 91% | 1016.2 hPa | 0 mm | - | 140 W/m² | - |
| 1777654188 | 12.22° C | 91% | 1016.4 hPa | 0 mm | - | 131 W/m² | - |
| 1777653886 | 12.22° C | 91% | 1016.2 hPa | 0 mm | - | 120 W/m² | - |
| 1777653582 | 12.22° C | 91% | 1016.1 hPa | 0 mm | - | 118 W/m² | - |
| 1777653278 | 12.22° C | 91% | 1016.1 hPa | 0 mm | - | 128 W/m² | - |
| 1777652975 | 12.22° C | 91% | 1016.1 hPa | 0 mm | - | 128 W/m² | - |
| 1777652672 | 12.22° C | 91% | 1016 hPa | 0 mm | - | 120 W/m² | - |
| 1777652369 | 12.22° C | 92% | 1015.9 hPa | 0 mm | - | 107 W/m² | - |
| 1777652066 | 12.22° C | 92% | 1016 hPa | 0 mm | - | 107 W/m² | - |
| 1777651762 | 12.22° C | 91% | 1015.9 hPa | 0 mm | - | 95 W/m² | - |
| 1777651459 | 12.22° C | 91% | 1016 hPa | 0 mm | - | 93 W/m² | - |
| 1777651157 | 12.22° C | 92% | 1016 hPa | 0 mm | - | 84 W/m² | - |
| 1777650854 | 12.22° C | 92% | 1015.8 hPa | 0 mm | - | 81 W/m² | - |
| 1777650550 | 11.67° C | 92% | 1015.9 hPa | 0 mm | - | 78 W/m² | - |
| 1777650248 | 11.67° C | 92% | 1015.8 hPa | 0 mm | - | 79 W/m² | - |
| 1777649944 | 11.67° C | 92% | 1015.8 hPa | 0 mm | - | 78 W/m² | - |
| 1777649642 | 11.67° C | 92% | 1016 hPa | 0 mm | - | 76 W/m² | - |
| 1777649337 | 11.67° C | 92% | 1015.8 hPa | 0 mm | - | 71 W/m² | - |
| 1777649035 | 11.67° C | 92% | 1015.8 hPa | 0 mm | - | 73 W/m² | - |
| 1777648733 | 11.67° C | 92% | 1015.7 hPa | 0 mm | - | 63 W/m² | - |
| 1777648429 | 11.67° C | 92% | 1015.6 hPa | 0 mm | - | 65 W/m² | - |
| 1777648125 | 11.67° C | 92% | 1015.5 hPa | 0 mm | - | 66 W/m² | - |
* Rain latest hour (hover to see other rain measurements)
** Current wind speed in m/s (hover to see current wind gust speed)